OSCAR 7

Satellite information

Favourite Embed

Satellite Type and Status

PAYLOADIN ORBIT

Key statistics

Satellite OSCAR 7 at a glance.

Uptime

18437

Days in orbit

Revolutions

≈ 12.5

Per day

Orbit

SSO

Sun Synchronous Orbit

Inclination

102.0

Latest

Satellite identification and parameters

Extended collection of information and parameters for OSCAR 7.

Object identification

Identified? True

Debris? False

Object name: OSCAR 7

International designator: 1974-089B

Object number (NORAD): 7530

Object ID (CCSDS): 7530

Country: UNITED STATES OF AMERICA (US)

Current information (Y/N): Y

RCS size: MEDIUM

Orbital parameters

Period: 114.861 minutes

Inclination: 101.994 deg

SMA: 7827.24 km

Apoapsis: 1458.666 km

Periapsis: 1439.544 km

RAAN: 131.7656 deg

Eccentricy: 0.0012215

Argument of periapsis: 182.7521 deg

Mean anomaly: 247.7569 deg

Mean motion: 12.5368887 rev/day

Mean motion (dot): -0.00000028 rev/day2

B* drag term: 0.00011757 1/REarth

Two-line elements (TLE)

Creation date: May 8, 2025, 3:01 a.m.

Reference frame: TEME

Reference center: EARTH

Epoch: May 7, 2025, 8:25 p.m. UTC

TLE line 0: 0 OSCAR 7

TLE line 1: 1 07530U 74089B 25127.85073698 -.00000028 00000-0 11757-3 0 9991

TLE line 2: 2 07530 101.9940 131.7656 0012215 182.7521 247.7569 12.53688870309726

Live tracking on map

Real-time ground track for satellite OSCAR 7.

In-orbit conjunctions

There are no conjunctions computed for OSCAR 7, at the moment. Check back to stay up to date, as we update our databases every day.

Go to all conjunctions

Associated space launch

Meteorological satellite using radiometric imaging

OSCAR 7 was lifted into orbit during the mission ‘Delta 2310 | NOAA 4’, on board a Delta 2310 space rocket.

The launch took place on Nov. 15, 1974, 5:11 p.m. from Space Launch Complex 2W.

For more information about the launch, click the button.

Launch to space Delta 2310 | NOAA 4
Delta 2310 | NOAA 4

Agency: N/A

Status: Launch Successful

Launch date: Nov. 15, 1974, 5:11 p.m. UTC

Rocket: Delta 2310

Launch pad: Space Launch Complex 2W

Location: Vandenberg SFB, CA, USA

...

Latest news about this satellite

There are no fresh news available about this satellite. Check back as we update our databases every day.


Newsletter sign-up

Weekly statistics, charts and insights to help you stay on top of the space industry.